Regional Weather Roundup
Issued by NWS

Home | Current Version | Previous Version | Graphics & Text | Print | Product List | Glossary On
Versions: 1 2 3 4 5 6 7 8 9 10 11 12 13 14 15 16 17 18 19 20 21 22 23 24 25 26 27 28 29 30 31 32 33 34 35 36 37 38 39 40 41 42 43 44 45 46 47 48 49 50
104
ASUS43 KLSX 272107
RWRMO

WEATHER SUMMARY FOR MISSOURI
NATIONAL WEATHER SERVICE SPRINGFIELD MO
400 PM CDT TUE SEP 27 2016

NOTE: "FAIR" INDICATES FEW OR NO CLOUDS BELOW 12,000 FEET WITH NO
       SIGNIFICANT WEATHER AND/OR OBSTRUCTIONS TO VISIBILITY.
       CURRENT SKY AND/OR WEATHER CONDITIONS ARE NOT AVAILABLE FOR
       CHILLICOTHE AND FARMINGTON.

MOZ001>031-035>038-043-044-053-054-272200-
...NORTHERN AND WESTERN MISSOURI...

CITY           SKY/WX    TMP DP  RH WIND       PRES   REMARKS
KANSAS CTY INT SUNNY     77  54  44 W8        29.91F
KANSAS C DTWN  SUNNY     80  51  36 W9        29.90F
LEE`S SUMMIT   SUNNY     80  50  34 W10       29.92F
ST JOSEPH      SUNNY     81  45  28 W9        29.90F
CHILLICOTHE      N/A     79  48  33 VRB7      29.89F
KIRKSVILLE     SUNNY     76  43  30 W14       29.87F

$$
MOZ066>068-077>081-088>096-101>105-272200-
...SOUTHWEST MISSOURI...

CITY           SKY/WX    TMP DP  RH WIND       PRES   REMARKS
SPRINGFIELD    SUNNY     80  43  26 W9        29.97F
JOPLIN         SUNNY     79  49  34 SW9       29.98F
BRANSON        SUNNY     77  45  31 W6        30.01F

$$
MOZ032>034-039>042-045>050-055>058-069>072-272200-
...CENTRAL MISSOURI...

CITY           SKY/WX    TMP DP  RH WIND       PRES   REMARKS
COLUMBIA       SUNNY     79  49  34 SW13      29.89F
JEFFERSON CITY SUNNY     80  48  32 SW14      29.89F
ROLLA          SUNNY     78  48  34 SW13      29.92F
SEDALIA        SUNNY     82  48  30 W10       29.91F
WHITEMAN AFB   SUNNY     80  51  35 W10       29.89F
OSAGE BEACH    SUNNY     79  50  36 W9        29.92F

$$
MOZ051-052-059>065-272200-
...EAST CENTRAL MISSOURI...

CITY           SKY/WX    TMP DP  RH WIND       PRES   REMARKS
ST LOUIS INTL  MOSUNNY   81  46  29 W15       29.88F
SPIRIT OF STL  SUNNY     80  50  34 W10       29.86F
ST CHARLES     SUNNY     80  46  30 W17G26    29.85F

$$
MOZ072>076-082>087-097>100-106>115-272200-
...SOUTH CENTRAL AND SOUTHEAST MISSOURI...

CITY           SKY/WX    TMP DP  RH WIND       PRES   REMARKS
CAPE GIRARDEAU SUNNY     79  48  33 W12       29.92F
FARMINGTON     SUNNY     77  51  40 SW14      29.93F
POPLAR BLUFF   SUNNY     80  48  32 W6        29.94F
WEST PLAINS    SUNNY     77  47  34 VRB3      30.00F

$$



USA.gov is the U.S. government's official web portal to all federal, state and local government web resources and services.